Spencer, IA

12:40 AM CST on February 21, 2017 (GMT -0600)
Spencer Municipal

Weather History for KSPW - February, 2013

Change the Weather History Date:

Thursday, February 21, 2013

  Actual Average Record
Temperature  
Mean Temperature 18 °F -  
Max Temperature 26 °F 35 °F 59 °F (1977)
Min Temperature 10 °F 15 °F -11 °F (2001)
Degree Days  
Heating Degree Days 47    
Moisture  
Dew Point 11 °F    
Average Humidity 72    
Maximum Humidity 86    
Minimum Humidity 49    
Precipitation  
Precipitation 0.00 in - - ()
Sea Level Pressure  
Sea Level Pressure 30.16 in    
Wind  
Wind Speed 13 mph (ENE)    
Max Wind Speed 23 mph    
Max Gust Speed 30 mph    
Visibility 7 miles    
Events Fog , Snow    
Averages and records for this station are not official NWS values.
T = Trace of Precipitation, MM = Missing Value Source: NWS Daily Summary

Daily Weather History Graph

Daily Weather History Graph

Search for Another Location

Airport or City:

Trip Planner

Search our weather history database for the weather conditions in past years. The results will help you decide how hot, cold, wet, or windy it might be!

Date:

Astronomy

Feb. 21, 2013 Rise Set
Actual Time 7:09 AM CST 6:00 PM CST
Civil Twilight 6:40 AM CST 6:29 PM CST
Nautical Twilight 6:07 AM CST 7:02 PM CST
Astronomical Twilight 5:34 AM CST 7:35 PM CST
Moon 2:11 PM CST 4:18 AM CST
Length of Visible Light 11h 48m
Length of Day
10h 50m
Waxing Gibbous, 84% of the Moon is Illuminated
Feb 21
Waxing Gibbous
Feb 25
Full
Mar 4
Last Quarter
Mar 11
New
Mar 19
First Quarter

Hourly Weather History & Observations

Time (CST) Temp. Windchill Dew Point Humidity Pressure Visibility Wind Dir Wind Speed Gust Speed Precip Events Conditions
12:53 AM 12.0 °F 1.5 °F 8.1 °F 84% 30.39 in 10.0 mi ESE 6.9 mph - N/A   Mostly Cloudy
1:53 AM 12.9 °F 2.6 °F 8.1 °F 81% 30.37 in 10.0 mi East 6.9 mph - N/A   Overcast
2:53 AM 14.0 °F 2.0 °F 9.0 °F 80% 30.35 in 10.0 mi East 9.2 mph - N/A   Mostly Cloudy
3:53 AM 12.9 °F -0.2 °F 7.0 °F 77% 30.29 in 10.0 mi East 10.4 mph - N/A   Clear
4:53 AM 12.0 °F 0.5 °F 7.0 °F 80% 30.34 in 10.0 mi ESE 8.1 mph - N/A   Clear
5:53 AM 10.9 °F -1.8 °F 6.1 °F 81% 30.32 in 10.0 mi ENE 9.2 mph - N/A   Clear
6:53 AM 12.0 °F -2.0 °F 6.1 °F 77% 30.30 in 10.0 mi ENE 11.5 mph - N/A   Clear
7:53 AM 12.9 °F -0.2 °F 7.0 °F 77% 30.31 in 10.0 mi East 10.4 mph - N/A   Clear
8:53 AM 16.0 °F 3.6 °F 8.1 °F 71% 30.30 in 10.0 mi East 10.4 mph - N/A   Clear
9:53 AM 18.0 °F 4.2 °F 8.1 °F 65% 30.31 in 10.0 mi East 13.8 mph - N/A   Clear
10:53 AM 21.0 °F 7.1 °F 8.1 °F 57% 30.30 in 10.0 mi ESE 16.1 mph - N/A   Overcast
11:53 AM 23.0 °F 10.1 °F 8.1 °F 53% 30.24 in 10.0 mi East 15.0 mph 23.0 mph N/A   Overcast
12:53 PM 25.0 °F 10.2 °F 8.1 °F 49% 30.20 in 10.0 mi East 21.9 mph - N/A   Mostly Cloudy
1:53 PM 26.1 °F 12.3 °F 9.0 °F 49% 30.16 in 9.0 mi ENE 19.6 mph - N/A   Mostly Cloudy
2:53 PM 26.1 °F 13.1 °F 9.0 °F 49% 30.15 in 10.0 mi ENE 17.3 mph - N/A   Overcast
3:53 PM 26.1 °F 13.1 °F 9.0 °F 49% 30.14 in 10.0 mi ENE 17.3 mph - N/A   Overcast
4:53 PM 25.0 °F 10.9 °F 10.0 °F 53% 30.12 in 10.0 mi ENE 19.6 mph - N/A   Overcast
5:53 PM 24.1 °F 9.4 °F 10.9 °F 57% 30.11 in 10.0 mi ENE 20.7 mph - N/A   Overcast
6:53 PM 23.0 °F 8.0 °F 12.0 °F 63% 30.09 in 10.0 mi NE 20.7 mph 26.5 mph N/A   Overcast
7:04 PM 21.2 °F 4.9 °F 12.2 °F 68% 30.01 in 1.8 mi ENE 23.0 mph 29.9 mph 0.00 in Snow Light Snow
7:17 PM 21.2 °F 6.4 °F 15.8 °F 80% 30.00 in 1.2 mi NE 18.4 mph 29.9 mph 0.00 in Snow Light Snow
7:53 PM 19.9 °F 5.2 °F 16.0 °F 85% 30.08 in 1.0 mi ENE 17.3 mph - 0.00 in Snow Light Snow
8:14 PM 19.4 °F 4.5 °F 15.8 °F 86% 30.00 in 0.8 mi ENE 17.3 mph 25.3 mph 0.00 in Snow Light Snow
8:22 PM 19.4 °F 4.5 °F 15.8 °F 86% 29.99 in 0.8 mi ENE 17.3 mph 24.2 mph 0.00 in Snow Light Snow
8:53 PM 19.0 °F 2.7 °F 15.1 °F 85% 30.06 in 0.5 mi ENE 20.7 mph 27.6 mph 0.00 in Fog , Snow Snow
9:53 PM 19.0 °F 5.6 °F 15.1 °F 85% 30.05 in 0.5 mi NE 13.8 mph - 0.00 in Fog , Snow Snow
10:32 PM 17.6 °F 1.3 °F 14.0 °F 86% 29.96 in 1.0 mi ENE 19.6 mph - 0.00 in Snow Light Snow
10:53 PM 18.0 °F 2.6 °F 14.0 °F 84% 30.01 in 1.0 mi ENE 17.3 mph - 0.00 in Snow Light Snow
11:51 PM 17.6 °F 3.2 °F 14.0 °F 86% 29.93 in 1.5 mi NE 15.0 mph - 0.00 in Snow Light Snow
11:53 PM 18.0 °F 3.6 °F 14.0 °F 84% 30.00 in 1.5 mi NE 15.0 mph - 0.00 in Snow Light Snow